Simultaneous Nadir Overpasses (SNOs) Predictions

Prediction of SNOs between NOAA-19 and TERRA Satellite Orbit:

Table of predicted SNOs for the next 14.0 days since TLE Epoch: 6/30/2018
Index Date (NOAA-19) Time (NOAA-19) Lat,Lon (NOAA-19) SZA (NOAA-19 ) Date (TERRA) Time (TERRA) Lat,Lon (TERRA) SZA (TERRA ) Distance(km) Time Diff (sec)
1 07/02/2018 02:30:39 77.17, 159.03 54.59 07/02/2018 02:30:49 77.16, 158.95 54.58 2.21 10
2 07/02/2018 03:21:31 -76.74, -31.84 125.68 07/02/2018 03:20:25 -76.76, -34.88 125.90 77.59 66
3 07/04/2018 08:04:16 -77.20,-104.46 125.21 07/04/2018 08:04:34 -77.16,-104.47 125.25 4.02 18
4 07/04/2018 08:55:13 77.10, 63.27 54.73 07/04/2018 08:54:00 77.14, 63.10 54.74 6.53 73
5 07/06/2018 13:37:50 77.20, -7.79 55.00 07/06/2018 13:38:16 77.21, -7.70 55.03 2.49 26
6 07/06/2018 14:28:50 -77.16, 159.67 125.03 07/06/2018 14:27:45 -77.15, 159.68 125.06 1.02 65
7 07/08/2018 19:11:25 -77.20, 88.89 124.76 07/08/2018 19:12:01 -77.22, 88.87 124.74 1.43 36
8 07/08/2018 20:02:25 77.18,-103.76 55.24 07/08/2018 20:01:28 77.15,-103.76 55.18 4.05 57
9 07/11/2018 00:45:00 77.21,-174.46 55.53 07/11/2018 00:45:44 77.21,-174.59 55.53 3.39 44
10 07/11/2018 01:35:59 -77.17, -7.01 124.50 07/11/2018 01:35:12 -77.19, -7.02 124.49 2.73 47
11 07/13/2018 06:18:35 -77.26, -78.01 124.14 07/13/2018 06:19:28 -77.25, -77.87 124.12 3.68 53




NCC Satellite Simultaneous Nadir Overpasses (SNOs) Prediction Service
